KB2SKP Weather Reports


Display with metric or nautical units.
time (UTC)temp
F
wind
direction
speed
MPH
gust
MPH
rain 1hr
in
rain 24hr
in
rain mn
in
humidity
%
barometer
mb
20260506033507 71 117 0.0 3.0 0.00 0.00 0.00 60 1008.8
20260506033004 71 39 2.0 3.0 0.00 0.00 0.00 59 1008.6
20260506032501 71 117 0.0 3.0 0.00 0.00 0.00 58 1008.8
20260506031957 71 94 3.0 3.0 0.00 0.00 0.00 57 1008.6
20260506031455 71 36 2.0 4.0 0.00 0.00 0.00 57 1008.5
20260506030952 71 106 2.0 3.0 0.00 0.00 0.00 57 1008.6
20260506030450 71 88 2.0 3.0 0.00 0.00 0.00 57 1008.6
20260506025947 71 34 0.0 3.0 0.00 0.00 0.00 56 1008.8
20260506025444 71 161 1.0 2.0 0.00 0.00 0.00 55 1008.6
20260506024940 72 57 2.0 4.0 0.00 0.00 0.00 55 1008.9
20260506024437 72 111 3.0 4.0 0.00 0.00 0.00 55 1008.8
20260506023933 72 105 0.0 2.0 0.00 0.00 0.00 54 1008.8
20260506023430 72 143 2.0 3.0 0.00 0.00 0.00 54 1008.9
20260506022926 72 207 2.0 3.0 0.00 0.00 0.00 54 1008.7
20260506022424 72 89 0.0 2.0 0.00 0.00 0.00 53 1008.7
20260506021922 72 132 0.0 1.0 0.00 0.00 0.00 53 1009.2
20260506021419 73 89 0.0 2.0 0.00 0.00 0.00 52 1008.9
20260506020916 73 122 0.0 2.0 0.00 0.00 0.00 51 1008.8
20260506020414 73 128 0.0 2.0 0.00 0.00 0.00 51 1008.4
20260506015911 73 89 0.0 2.0 0.00 0.00 0.00 51 1008.7
20260506015408 73 209 3.0 3.0 0.00 0.00 0.00 50 1008.8
20260506014905 73 265 3.0 3.0 0.00 0.00 0.00 50 1008.6
20260506014402 73 102 1.0 3.0 0.00 0.00 0.00 50 1008.7
20260506013859 73 133 3.0 3.0 0.00 0.00 0.00 49 1008.5
20260506013357 73 89 0.0 1.0 0.00 0.00 0.00 49 1008.5
20260506012852 73 72 1.0 2.0 0.00 0.00 0.00 49 1008.5
20260506012349 74 95 1.0 3.0 0.00 0.00 0.00 48 1008.5
20260506011846 74 256 2.0 2.0 0.00 0.00 0.00 49 1008.2
20260506011343 74 117 2.0 2.0 0.00 0.00 0.00 48 1008.5
20260506010840 74 116 0.0 1.0 0.00 0.00 0.00 48 1008.1
20260506010339 74 89 0.0 2.0 0.00 0.00 0.00 48 1008.1
20260506005835 75 41 1.0 2.0 0.00 0.00 0.00 47 1008.0
20260506005332 74 113 5.0 5.0 0.00 0.00 0.00 47 1008.1
20260506004828 75 114 0.0 3.0 0.00 0.00 0.00 47 1007.9
20260506004326 75 89 0.0 3.0 0.00 0.00 0.00 46 1008.0
20260506003822 75 211 3.0 3.0 0.00 0.00 0.00 45 1008.0
20260506003318 75 355 1.0 4.0 0.00 0.00 0.00 45 1007.7
20260506002814 75 122 0.0 5.0 0.00 0.00 0.00 44 1007.9
20260506002311 76 160 0.0 3.0 0.00 0.00 0.00 44 1007.8
20260506001807 76 115 2.0 3.0 0.00 0.00 0.00 43 1007.7
20260506001304 76 79 2.0 2.0 0.00 0.00 0.00 42 1007.8
20260506000801 77 255 0.0 3.0 0.00 0.00 0.00 42 1007.7
20260506000259 77 198 0.0 2.0 0.00 0.00 0.00 41 1007.5
20260505235755 77 128 1.0 3.0 0.00 0.00 0.00 41 1007.5
20260505235253 77 27 2.0 3.0 0.00 0.00 0.00 41 1007.5
20260505234750 77 167 1.0 4.0 0.00 0.00 0.00 41 1007.4
20260505234247 77 210 0.0 3.0 0.00 0.00 0.00 41 1007.3
20260505233744 78 117 2.0 6.0 0.00 0.00 0.00 40 1007.3
20260505233242 78 209 1.0 3.0 0.00 0.00 0.00 40 1007.2
20260505232739 78 134 1.0 4.0 0.00 0.00 0.00 39 1007.1
20260505232236 78 147 2.0 3.0 0.00 0.00 0.00 39 1007.2
20260505231732 79 219 0.0 3.0 0.00 0.00 0.00 39 1007.2
20260505231232 79 260 0.0 3.0 0.00 0.00 0.00 40 1007.1
20260505230729 79 248 0.0 2.0 0.00 0.00 0.00 39 1007.0
20260505230226 79 288 1.0 4.0 0.00 0.00 0.00 38 1007.0
20260505225722 79 145 0.0 3.0 0.00 0.00 0.00 38 1007.1
20260505225220 79 106 1.0 5.0 0.00 0.00 0.00 38 1007.3
20260505224715 79 242 1.0 3.0 0.00 0.00 0.00 38 1006.8
20260505224213 79 166 0.0 3.0 0.00 0.00 0.00 37 1007.0
20260505223710 80 314 2.0 2.0 0.00 0.00 0.00 37 1007.0
20260505223206 80 193 1.0 4.0 0.00 0.00 0.00 37 1006.9
20260505222702 80 96 2.0 2.0 0.00 0.00 0.00 37 1007.0
20260505222158 80 172 0.0 3.0 0.00 0.00 0.00 36 1007.0
20260505221656 81 41 3.0 4.0 0.00 0.00 0.00 35 1007.1
20260505221152 80 73 2.0 7.0 0.00 0.00 0.00 36 1007.0
20260505220649 80 52 0.0 2.0 0.00 0.00 0.00 35 1006.8
20260505220147 81 132 3.0 3.0 0.00 0.00 0.00 35 1007.0
20260505215644 81 319 1.0 4.0 0.00 0.00 0.00 34 1007.0
20260505215142 81 119 0.0 5.0 0.00 0.00 0.00 35 1006.9
20260505214640 81 75 0.0 5.0 0.00 0.00 0.00 34 1006.7
20260505214137 81 183 2.0 8.0 0.00 0.00 0.00 34 1006.9
20260505213635 82 57 2.0 4.0 0.00 0.00 0.00 34 1007.0
20260505213131 82 195 2.0 6.0 0.00 0.00 0.00 33 1006.9
20260505212627 82 57 3.0 6.0 0.00 0.00 0.00 34 1006.8
20260505212125 82 0 0.0 4.0 0.00 0.00 0.00 33 1006.7
20260505211622 82 185 2.0 4.0 0.00 0.00 0.00 33 1007.0
20260505211120 82 59 3.0 5.0 0.00 0.00 0.00 34 1007.0
20260505210615 82 78 2.0 4.0 0.00 0.00 0.00 33 1006.6
20260505210112 83 148 2.0 5.0 0.00 0.00 0.00 34 1006.8
20260505205610 82 101 2.0 3.0 0.00 0.00 0.00 34 1006.9
20260505205107 82 217 1.0 5.0 0.00 0.00 0.00 33 1006.8
20260505204604 82 352 2.0 4.0 0.00 0.00 0.00 32 1006.9
20260505204102 82 70 1.0 6.0 0.00 0.00 0.00 31 1006.8
20260505203558 82 38 2.0 8.0 0.00 0.00 0.00 31 1006.8
20260505203056 84 98 3.0 4.0 0.00 0.00 0.00 32 1006.9
20260505202551 83 12 2.0 5.0 0.00 0.00 0.00 33 1006.9
20260505202047 84 15 2.0 4.0 0.00 0.00 0.00 33 1006.9
20260505201544 84 254 2.0 4.0 0.00 0.00 0.00 34 1007.0
20260505201042 84 293 1.0 2.0 0.00 0.00 0.00 34 1007.2
20260505200540 83 51 1.0 6.0 0.00 0.00 0.00 33 1007.4
20260505200036 83 120 2.0 6.0 0.00 0.00 0.00 33 1007.4
20260505195532 83 56 0.0 4.0 0.00 0.00 0.00 34 1007.4
20260505195030 84 63 1.0 5.0 0.00 0.00 0.00 34 1007.5
20260505194527 83 217 3.0 5.0 0.00 0.00 0.00 34 1007.4
20260505194022 83 306 2.0 6.0 0.00 0.00 0.00 35 1007.6
20260505193520 84 124 3.0 4.0 0.00 0.00 0.00 36 1007.9
20260505193017 83 266 1.0 4.0 0.00 0.00 0.00 35 1008.0
20260505192516 82 113 2.0 5.0 0.00 0.00 0.00 33 1007.9
20260505192013 83 272 1.0 4.0 0.00 0.00 0.00 35 1008.0
20260505191511 83 150 0.0 6.0 0.00 0.00 0.00 35 1008.0
20260505191009 84 174 0.0 2.0 0.00 0.00 0.00 36 1008.1
20260505190509 83 249 2.0 4.0 0.00 0.00 0.00 36 1008.2
20260505190004 82 200 3.0 3.0 0.00 0.00 0.00 36 1008.3
20260505185456 82 210 0.0 4.0 0.00 0.00 0.00 37 1008.2
20260505184952 82 101 3.0 5.0 0.00 0.00 0.00 37 1008.1
20260505184449 82 316 1.0 5.0 0.00 0.00 0.00 36 1008.6
20260505183945 82 146 3.0 6.0 0.00 0.00 0.00 37 1008.5
20260505183443 83 245 2.0 3.0 0.00 0.00 0.00 38 1008.4
20260505182939 82 306 3.0 5.0 0.00 0.00 0.00 38 1008.6
20260505182437 82 186 1.0 4.0 0.00 0.00 0.00 38 1008.6
20260505181932 83 8 2.0 5.0 0.00 0.00 0.00 36 1008.4
20260505181430 82 286 4.0 4.0 0.00 0.00 0.00 38 1008.5
20260505180927 82 189 3.0 6.0 0.00 0.00 0.00 38 1008.7
20260505180423 82 138 2.0 4.0 0.00 0.00 0.00 38 1008.6
20260505175920 81 109 2.0 3.0 0.00 0.00 0.00 39 1008.8
20260505175416 82 280 2.0 4.0 0.00 0.00 0.00 38 1008.6
20260505174913 81 296 1.0 5.0 0.00 0.00 0.00 40 1008.8
20260505174410 82 64 2.0 4.0 0.00 0.00 0.00 41 1008.8
20260505173906 82 142 2.0 3.0 0.00 0.00 0.00 40 1008.8
20260505173403 82 194 3.0 6.0 0.00 0.00 0.00 41 1008.8
20260505172900 81 5 1.0 2.0 0.00 0.00 0.00 42 1008.7
20260505172358 80 128 2.0 4.0 0.00 0.00 0.00 42 1008.9
20260505171857 80 130 4.0 4.0 0.00 0.00 0.00 42 1008.9
20260505171354 80 70 1.0 4.0 0.00 0.00 0.00 43 1009.1
20260505170851 79 213 4.0 5.0 0.00 0.00 0.00 43 1009.2
20260505170348 79 140 2.0 4.0 0.00 0.00 0.00 41 1009.3
20260505165843 79 141 3.0 4.0 0.00 0.00 0.00 41 1009.3
20260505165339 80 144 0.0 3.0 0.00 0.00 0.00 42 1009.3
20260505164835 79 173 0.0 3.0 0.00 0.00 0.00 43 1009.4
20260505164331 79 10 1.0 4.0 0.00 0.00 0.00 42 1009.5
20260505163830 79 37 0.0 2.0 0.00 0.00 0.00 42 1009.6
20260505163328 79 255 2.0 4.0 0.00 0.00 0.00 42 1009.6
20260505162827 78 135 1.0 5.0 0.00 0.00 0.00 43 1009.7
20260505162322 78 269 4.0 4.0 0.00 0.00 0.00 44 1009.9
20260505161819 78 106 0.0 5.0 0.00 0.00 0.00 43 1009.8
20260505161317 77 130 0.0 3.0 0.00 0.00 0.00 46 1009.7
20260505160814 77 343 2.0 4.0 0.00 0.00 0.00 45 1010.1
20260505160312 77 214 2.0 3.0 0.00 0.00 0.00 45 1010.2
20260505153250 76 356 1.0 3.0 0.00 0.00 0.00 50 1010.1
20260505152747 75 180 3.0 4.0 0.00 0.00 0.00 50 1010.0
20260505152244 75 191 0.0 3.0 0.00 0.00 0.00 50 1009.9
20260505151738 74 169 2.0 3.0 0.00 0.00 0.00 51 1010.1
20260505151236 74 92 2.0 4.0 0.00 0.00 0.00 49 1010.0
20260505150732 74 114 0.0 3.0 0.00 0.00 0.00 50 1009.9
20260505150229 75 203 0.0 2.0 0.00 0.00 0.00 52 1009.9
20260505140154 69 169 2.0 4.0 0.00 0.00 0.00 57 1009.9
20260505130118 67 180 2.0 3.0 0.00 0.00 0.00 62 1010.1
20260505124607 66 136 4.0 4.0 0.00 0.00 0.00 63 1010.0
20260505124104 65 106 2.0 3.0 0.00 0.00 0.00 65 1010.0
20260505123600 65 131 3.0 4.0 0.00 0.00 0.00 66 1010.0
20260505123057 64 99 3.0 3.0 0.00 0.00 0.00 66 1010.1
20260505122553 64 149 2.0 3.0 0.00 0.00 0.00 66 1009.9
20260505122051 64 146 3.0 5.0 0.00 0.00 0.00 65 1010.0
20260505121547 65 118 2.0 4.0 0.00 0.00 0.00 65 1009.9
20260505121044 65 123 5.0 5.0 0.00 0.00 0.00 65 1010.0
20260505120540 64 97 0.0 4.0 0.00 0.00 0.00 66 1009.7
20260505120036 64 124 2.0 4.0 0.00 0.00 0.00 66 1009.9
20260505115531 64 80 1.0 3.0 0.00 0.00 0.00 67 1010.0
20260505115029 63 98 1.0 2.0 0.00 0.00 0.00 67 1009.8
20260505114525 63 182 0.0 3.0 0.00 0.00 0.00 67 1009.7
20260505114022 63 106 0.0 3.0 0.00 0.00 0.00 67 1009.6
20260505113518 63 92 2.0 3.0 0.00 0.00 0.00 69 1009.7
20260505113015 63 180 1.0 3.0 0.00 0.00 0.00 68 1009.6
20260505112510 63 118 1.0 3.0 0.00 0.00 0.00 68 1009.7
20260505112009 62 142 3.0 3.0 0.00 0.00 0.00 69 1009.5
20260505111502 62 183 0.0 3.0 0.00 0.00 0.00 69 1009.5
20260505110959 62 165 0.0 2.0 0.00 0.00 0.00 69 1009.7
20260505110455 62 121 1.0 2.0 0.00 0.00 0.00 70 1009.5
20260505101927 62 118 1.0 4.0 0.00 0.00 0.00 70 1009.5
20260505101421 61 136 3.0 3.0 0.00 0.00 0.00 70 1009.4
20260505100917 62 152 1.0 4.0 0.00 0.00 0.00 70 1009.3
20260505100414 62 125 3.0 3.0 0.00 0.00 0.00 70 1009.1
20260505095910 62 154 2.0 3.0 0.00 0.00 0.00 70 1009.2
20260505095407 62 124 2.0 3.0 0.00 0.00 0.00 70 1009.2
20260505094903 62 122 1.0 3.0 0.00 0.00 0.00 70 1009.0
20260505094400 62 26 0.0 3.0 0.00 0.00 0.00 70 1009.1
20260505093856 62 102 1.0 3.0 0.00 0.00 0.00 69 1009.1
20260505093353 62 124 1.0 4.0 0.00 0.00 0.00 70 1009.2
20260505092851 62 125 3.0 4.0 0.00 0.00 0.00 69 1009.2
20260505092348 62 141 1.0 4.0 0.00 0.00 0.00 69 1009.1
20260505091845 62 149 2.0 3.0 0.00 0.00 0.00 69 1009.1
20260505091343 62 107 2.0 4.0 0.00 0.00 0.00 69 1009.1
20260505090841 62 127 2.0 3.0 0.00 0.00 0.00 68 1009.0
20260505090339 63 169 2.0 4.0 0.00 0.00 0.00 68 1009.0
20260505085836 62 133 3.0 4.0 0.00 0.00 0.00 69 1009.0
20260505085334 63 117 2.0 4.0 0.00 0.00 0.00 68 1008.8
20260505084832 63 144 2.0 4.0 0.00 0.00 0.00 68 1008.8
20260505084330 63 104 3.0 5.0 0.00 0.00 0.00 68 1008.9
20260505083826 62 141 2.0 2.0 0.00 0.00 0.00 69 1008.7
20260505083324 63 92 1.0 3.0 0.00 0.00 0.00 68 1008.8
20260505082821 63 115 2.0 3.0 0.00 0.00 0.00 68 1008.8
20260505082317 63 93 1.0 4.0 0.00 0.00 0.00 68 1008.9
20260505081814 63 101 2.0 3.0 0.00 0.00 0.00 68 1008.8
20260505081310 63 183 0.0 3.0 0.00 0.00 0.00 68 1009.0
20260505080807 63 111 2.0 3.0 0.00 0.00 0.00 68 1008.8
20260505080303 63 142 3.0 6.0 0.00 0.00 0.00 68 1008.7
20260505075758 63 124 0.0 3.0 0.00 0.00 0.00 68 1008.9
20260505075256 63 142 0.0 3.0 0.00 0.00 0.00 68 1009.0
20260505074753 63 151 1.0 4.0 0.00 0.00 0.00 68 1008.7
20260505074250 63 122 2.0 3.0 0.00 0.00 0.00 69 1008.8
20260505073748 63 134 2.0 2.0 0.00 0.00 0.00 69 1008.6
20260505073245 63 176 2.0 6.0 0.00 0.00 0.00 68 1008.7
20260505072742 63 20 0.0 3.0 0.00 0.00 0.00 69 1008.9
20260505072238 63 89 1.0 2.0 0.00 0.00 0.00 69 1008.7
20260505071734 63 139 1.0 3.0 0.00 0.00 0.00 69 1008.7
20260505071231 63 161 0.0 3.0 0.00 0.00 0.00 68 1008.5
20260505070728 63 92 1.0 2.0 0.00 0.00 0.00 68 1008.5
20260505070224 63 350 0.0 3.0 0.00 0.00 0.00 68 1008.7
20260505065720 63 103 3.0 3.0 0.00 0.00 0.00 68 1008.5
20260505065217 63 123 2.0 3.0 0.00 0.00 0.00 68 1008.5
20260505064714 63 103 2.0 3.0 0.00 0.00 0.00 68 1008.6
20260505064212 63 188 0.0 3.0 0.00 0.00 0.00 67 1008.6
20260505063709 64 117 2.0 2.0 0.00 0.00 0.00 67 1008.4
20260505063205 64 116 1.0 3.0 0.00 0.00 0.00 67 1008.7
20260505062701 64 132 0.0 3.0 0.00 0.00 0.00 67 1008.4
20260505062200 64 113 2.0 3.0 0.00 0.00 0.00 66 1008.5
20260505061656 64 86 3.0 4.0 0.00 0.00 0.00 66 1008.4
20260505061154 64 114 0.0 4.0 0.00 0.00 0.00 66 1008.6
20260505060651 64 76 1.0 5.0 0.00 0.00 0.00 66 1008.5
20260505060148 64 107 2.0 3.0 0.00 0.00 0.00 66 1008.6
20260505055643 64 143 2.0 3.0 0.00 0.00 0.00 65 1008.6
20260505055140 64 58 1.0 3.0 0.00 0.00 0.00 65 1008.5
20260505054638 64 131 3.0 4.0 0.00 0.00 0.00 64 1008.6
20260505054136 64 64 0.0 4.0 0.00 0.00 0.00 64 1008.8
20260505053633 63 142 0.0 3.0 0.00 0.00 0.00 64 1008.8
20260505053129 63 185 1.0 3.0 0.00 0.00 0.00 64 1008.7
20260505052626 63 153 3.0 3.0 0.00 0.00 0.00 64 1008.5
20260505052124 63 89 0.0 2.0 0.00 0.00 0.00 63 1008.6
20260505051621 63 147 0.0 3.0 0.00 0.00 0.00 62 1008.5
20260505051119 62 118 2.0 3.0 0.00 0.00 0.00 63 1008.5
20260505050616 62 133 2.0 2.0 0.00 0.00 0.00 62 1008.6
20260505050114 62 147 0.0 3.0 0.00 0.00 0.00 62 1008.5
20260505041544 62 83 0.0 2.0 0.00 0.00 0.00 62 1008.5
20260505041041 62 87 1.0 2.0 0.00 0.00 0.00 63 1008.4
20260505040539 62 137 0.0 2.0 0.00 0.00 0.00 61 1008.3
20260505040036 62 165 1.0 2.0 0.00 0.00 0.00 62 1008.4
20260505035531 62 113 2.0 2.0 0.00 0.00 0.00 62 1008.3
20260505035028 61 160 2.0 2.0 0.00 0.00 0.00 63 1008.1
20260505034525 61 150 1.0 2.0 0.00 0.00 0.00 65 1008.2
20260505034022 61 132 1.0 2.0 0.00 0.00 0.00 64 1008.4